GW5440 Weather Reports


time (UTC)temp
F
wind
direction
speed
knots
gust
knots
rain 1hr
in
rain 24hr
in
rain mn
in
humidity
%
barometer
mb
20260508213359 76 306 1.7 7.0 0.00 0.00 0.00 23 1014.3
20260508213159 76 351 2.6 7.0 0.00 0.00 0.00 23 1014.4
20260508212759 77 325 2.6 7.0 0.00 0.00 0.00 21 1014.4
20260508212559 77 306 3.5 7.0 0.00 0.00 0.00 22 1014.5
20260508212359 77 248 0.9 3.5 0.00 0.00 0.00 22 1014.4
20260508212159 76 215 1.7 3.5 0.00 0.00 0.00 23 1014.5
20260508211800 75 24 1.7 6.1 0.00 0.00 0.00 23 1014.5
20260508211559 75 300 2.6 6.1 0.00 0.00 0.00 21 1014.5
20260508211359 75 343 1.7 7.8 0.00 0.00 0.00 23 1014.5
20260508211159 76 281 3.5 7.8 0.00 0.00 0.00 21 1014.5
20260508210759 75 315 4.3 8.7 0.00 0.00 0.00 23 1014.5
20260508210559 75 292 2.6 8.7 0.00 0.00 0.00 24 1014.6
20260508210000 76 334 2.6 7.8 0.00 0.00 0.00 24 1014.6
20260508205758 76 317 2.6 7.8 0.00 0.00 0.00 23 1014.6
20260508205559 76 317 1.7 5.2 0.00 0.00 0.00 23 1014.7
20260508205159 76 207 2.6 8.7 0.00 0.00 0.00 23 1014.7
20260508204559 76 284 3.5 8.7 0.00 0.00 0.00 22 1014.8
20260508204359 76 265 2.6 9.6 0.00 0.00 0.00 25 1014.8
20260508204200 75 230 2.6 9.6 0.00 0.00 0.00 24 1014.7
20260508203959 75 329 1.7 9.6 0.00 0.00 0.00 24 1014.8
20260508203759 75 335 4.3 9.6 0.00 0.00 0.00 21 1014.8
20260508203600 76 309 3.5 9.6 0.00 0.00 0.00 22 1014.8
20260508203400 76 261 1.7 9.6 0.00 0.00 0.00 23 1014.8
20260508203200 75 266 1.7 9.6 0.00 0.00 0.00 23 1014.8
20260508202959 75 284 3.5 9.6 0.00 0.00 0.00 22 1014.9
20260508202759 75 244 7.0 9.6 0.00 0.00 0.00 23 1014.8
20260508202559 75 329 3.5 7.0 0.00 0.00 0.00 22 1014.8
20260508202359 75 338 2.6 7.0 0.00 0.00 0.00 21 1014.8
20260508202159 75 329 2.6 7.0 0.00 0.00 0.00 23 1014.8
20260508201959 75 273 1.7 7.0 0.00 0.00 0.00 23 1014.9
20260508201759 75 301 2.6 7.0 0.00 0.00 0.00 23 1014.9
20260508201400 74 263 2.6 7.0 0.00 0.00 0.00 25 1014.9
20260508201159 74 329 0.9 5.2 0.00 0.00 0.00 26 1014.8
20260508201000 74 315 0.9 5.2 0.00 0.00 0.00 24 1014.9
20260508200559 75 325 3.5 5.2 0.00 0.00 0.00 25 1014.9
20260508200400 75 271 1.7 6.1 0.00 0.00 0.00 26 1014.9
20260508200200 74 327 1.7 6.1 0.00 0.00 0.00 26 1014.9
20260508200000 74 289 2.6 6.1 0.00 0.00 0.00 26 1014.9
20260508195759 74 300 2.6 6.1 0.00 0.00 0.00 26 1014.9
20260508195600 74 190 1.7 6.1 0.00 0.00 0.00 25 1014.9
20260508195400 74 219 3.5 6.1 0.00 0.00 0.00 26 1014.9
20260508195200 73 319 2.6 7.0 0.00 0.00 0.00 24 1015.0
20260508194759 74 329 3.5 7.0 0.00 0.00 0.00 26 1014.9
20260508194600 74 323 3.5 7.0 0.00 0.00 0.00 26 1015.0
20260508194400 74 303 2.6 7.0 0.00 0.00 0.00 26 1014.9
20260508194200 73 323 1.7 7.0 0.00 0.00 0.00 27 1015.0
20260508193959 73 299 2.6 8.7 0.00 0.00 0.00 28 1014.9
20260508193759 74 298 2.6 8.7 0.00 0.00 0.00 26 1015.1
20260508193559 74 286 3.5 8.7 0.00 0.00 0.00 25 1015.0
20260508193359 74 355 3.5 8.7 0.00 0.00 0.00 27 1015.0
20260508192959 74 338 3.5 7.0 0.00 0.00 0.00 30 1015.0
20260508192811 73 268 3.5 7.8 0.00 0.00 0.00 27 1015.1
20260508192359 73 308 3.5 7.8 0.00 0.00 0.00 27 1015.1
20260508192159 73 292 3.5 8.7 0.00 0.00 0.00 27 1015.1
20260508191959 73 341 2.6 8.7 0.00 0.00 0.00 30 1015.1
20260508191759 73 340 4.3 8.7 0.00 0.00 0.00 27 1015.1
20260508191600 73 290 5.2 8.7 0.00 0.00 0.00 28 1015.2
20260508191359 73 282 3.5 7.8 0.00 0.00 0.00 29 1015.2
20260508191159 72 262 2.6 8.7 0.00 0.00 0.00 29 1015.2
20260508190959 73 295 3.5 8.7 0.00 0.00 0.00 27 1015.2
20260508190759 73 268 3.5 8.7 0.00 0.00 0.00 27 1015.2
20260508190559 74 296 2.6 8.7 0.00 0.00 0.00 28 1015.2
20260508190159 73 236 0.9 7.8 0.00 0.00 0.00 28 1015.3
20260508190001 73 287 3.5 7.8 0.00 0.00 0.00 27 1015.3
20260508185800 73 280 1.7 9.6 0.00 0.00 0.00 28 1015.2
20260508185600 73 286 1.7 9.6 0.00 0.00 0.00 29 1015.2
20260508185359 73 360 3.5 9.6 0.00 0.00 0.00 27 1015.3
20260508185159 73 285 2.6 9.6 0.00 0.00 0.00 27 1015.3
20260508184759 73 225 2.6 8.7 0.00 0.00 0.00 27 1015.4
20260508184559 73 292 3.5 8.7 0.00 0.00 0.00 28 1015.4
20260508184359 73 317 2.6 7.0 0.00 0.00 0.00 30 1015.5
20260508184200 73 265 0.9 7.0 0.00 0.00 0.00 30 1015.4
20260508184000 73 292 1.7 7.0 0.00 0.00 0.00 29 1015.5
20260508183600 74 260 2.6 7.0 0.00 0.00 0.00 27 1015.5
20260508183400 73 272 1.7 7.0 0.00 0.00 0.00 28 1015.5
20260508183200 73 293 2.6 7.0 0.00 0.00 0.00 30 1015.5
20260508183000 73 298 2.6 7.0 0.00 0.00 0.00 30 1015.5
20260508182559 72 244 0.9 7.0 0.00 0.00 0.00 29 1015.5
20260508182400 71 257 3.5 7.0 0.00 0.00 0.00 31 1015.6
20260508182159 71 319 2.6 7.0 0.00 0.00 0.00 31 1015.5
20260508181959 72 325 2.6 7.0 0.00 0.00 0.00 31 1015.6
20260508181759 72 300 1.7 5.2 0.00 0.00 0.00 32 1015.6
20260508181358 71 246 0.9 5.2 0.00 0.00 0.00 31 1015.6
20260508180959 72 188 1.7 5.2 0.00 0.00 0.00 32 1015.7
20260508180800 71 292 1.7 5.2 0.00 0.00 0.00 33 1015.7
20260508180600 71 323 2.6 5.2 0.00 0.00 0.00 33 1015.7
20260508180400 71 328 1.7 4.3 0.00 0.00 0.00 31 1015.7
20260508180200 71 229 0.0 4.3 0.00 0.00 0.00 32 1015.7
20260508175959 71 229 0.9 4.3 0.00 0.00 0.00 32 1015.8
20260508175759 72 229 0.9 4.3 0.00 0.00 0.00 30 1015.8
20260508175359 72 292 1.7 6.1 0.00 0.00 0.00 33 1015.8
20260508175159 71 266 0.9 6.1 0.00 0.00 0.00 33 1015.9
20260508174959 71 262 1.7 6.1 0.00 0.00 0.00 33 1015.9
20260508174759 71 273 1.7 6.1 0.00 0.00 0.00 36 1015.9
20260508174559 71 273 1.7 4.3 0.00 0.00 0.00 35 1015.9
20260508174359 71 211 1.7 4.3 0.00 0.00 0.00 32 1015.9
20260508174000 71 200 2.6 7.8 0.00 0.00 0.00 35 1015.9
20260508173759 71 300 1.7 7.8 0.00 0.00 0.00 37 1015.9
20260508173600 70 277 2.6 7.8 0.00 0.00 0.00 36 1015.9
20260508173200 70 217 1.7 4.3 0.00 0.00 0.00 38 1015.9
20260508173000 70 196 2.6 5.2 0.00 0.00 0.00 36 1016.0
20260508172558 71 280 2.6 5.2 0.00 0.00 0.00 35 1015.9
20260508172359 71 335 0.9 5.2 0.00 0.00 0.00 37 1015.9
20260508171759 71 281 0.9 4.3 0.00 0.00 0.00 37 1015.9
20260508171400 72 263 0.9 4.3 0.00 0.00 0.00 39 1015.9
20260508171159 72 283 0.9 4.3 0.00 0.00 0.00 39 1015.9
20260508170959 72 257 0.9 4.3 0.00 0.00 0.00 37 1015.9
20260508170759 71 270 0.9 5.2 0.00 0.00 0.00 36 1015.9
20260508170559 71 199 0.9 5.2 0.00 0.00 0.00 39 1015.9
20260508170001 69 197 1.7 6.1 0.00 0.00 0.00 41 1015.8
20260508165800 69 293 2.6 6.1 0.00 0.00 0.00 41 1015.8
20260508165559 70 269 2.6 6.1 0.00 0.00 0.00 43 1015.8
20260508165359 70 273 2.6 6.1 0.00 0.00 0.00 41 1015.8
20260508165159 70 288 0.9 6.1 0.00 0.00 0.00 40 1015.8
20260508164959 70 206 1.7 6.1 0.00 0.00 0.00 37 1015.8
20260508164759 70 295 1.7 6.1 0.00 0.00 0.00 39 1015.9
20260508164558 70 242 1.7 4.3 0.00 0.00 0.00 37 1015.8
20260508164359 70 163 1.7 4.3 0.00 0.00 0.00 39 1015.7
20260508164159 70 161 2.6 4.3 0.00 0.00 0.00 38 1015.7
20260508163959 70 167 1.7 5.2 0.00 0.00 0.00 36 1015.7
20260508163759 70 252 0.9 2.6 0.00 0.00 0.00 37 1015.8
20260508163559 69 157 0.9 4.3 0.00 0.00 0.00 36 1015.7
20260508163359 69 157 0.9 4.3 0.00 0.00 0.00 39 1015.7
20260508162959 69 157 1.7 4.3 0.00 0.00 0.00 38 1015.7
20260508162759 70 154 1.7 4.3 0.00 0.00 0.00 39 1015.7
20260508162400 69 152 0.9 1.7 0.00 0.00 0.00 44 1015.7
20260508162200 68 151 0.9 1.7 0.00 0.00 0.00 42 1015.7
20260508162000 68 151 0.0 2.6 0.00 0.00 0.00 44 1015.7
20260508161559 68 153 0.9 2.6 0.00 0.00 0.00 42 1015.7
20260508161159 68 153 1.7 4.3 0.00 0.00 0.00 41 1015.8
20260508160759 67 153 1.7 4.3 0.00 0.00 0.00 42 1015.7
20260508160600 68 153 0.9 4.3 0.00 0.00 0.00 42 1015.7
20260508160400 68 153 1.7 4.3 0.00 0.00 0.00 43 1015.7
20260508160159 67 152 1.7 2.6 0.00 0.00 0.00 41 1015.7
20260508160001 68 152 1.7 2.6 0.00 0.00 0.00 44 1015.7
20260508155759 68 153 0.9 2.6 0.00 0.00 0.00 44 1015.7
20260508155559 67 153 1.7 4.3 0.00 0.00 0.00 44 1015.8
20260508155200 67 163 0.9 4.3 0.00 0.00 0.00 46 1015.7
20260508154959 67 166 0.9 4.3 0.00 0.00 0.00 47 1015.7
20260508154559 66 163 0.9 2.6 0.00 0.00 0.00 47 1015.6
20260508154400 66 164 1.7 2.6 0.00 0.00 0.00 46 1015.7
20260508154203 66 163 0.9 2.6 0.00 0.00 0.00 45 1015.7
20260508153959 66 164 0.9 2.6 0.00 0.00 0.00 46 1015.7
20260508153759 65 166 0.9 2.6 0.00 0.00 0.00 47 1015.7
20260508153559 65 167 0.9 2.6 0.00 0.00 0.00 47 1015.7
20260508153400 65 169 1.7 3.5 0.00 0.00 0.00 48 1015.7
20260508153159 65 170 0.9 3.5 0.00 0.00 0.00 47 1015.7
20260508152959 65 170 0.9 2.6 0.00 0.00 0.00 48 1015.6
20260508152600 65 171 0.0 1.7 0.00 0.00 0.00 48 1015.7
20260508152359 65 172 0.9 1.7 0.00 0.00 0.00 48 1015.6
20260508152200 65 171 0.9 1.7 0.00 0.00 0.00 47 1015.6
20260508151759 65 173 0.0 0.9 0.00 0.00 0.00 48 1015.6
20260508151559 65 159 0.0 1.7 0.00 0.00 0.00 47 1015.6
20260508151359 64 158 0.0 1.7 0.00 0.00 0.00 48 1015.5
20260508151159 64 158 0.0 1.7 0.00 0.00 0.00 47 1015.6
20260508150759 64 158 0.0 1.7 0.00 0.00 0.00 47 1015.6
20260508150359 63 159 0.9 1.7 0.00 0.00 0.00 48 1015.5
20260508150159 63 161 0.0 1.7 0.00 0.00 0.00 50 1015.5
20260508150001 63 163 0.0 1.7 0.00 0.00 0.00 50 1015.5
20260508145759 62 164 0.0 1.7 0.00 0.00 0.00 48 1015.5
20260508145559 62 163 0.9 1.7 0.00 0.00 0.00 49 1015.5
20260508145400 62 163 0.0 0.9 0.00 0.00 0.00 49 1015.5
20260508145159 62 163 0.0 1.7 0.00 0.00 0.00 48 1015.5
20260508144959 62 163 0.9 1.7 0.00 0.00 0.00 48 1015.5
20260508144759 62 163 0.0 1.7 0.00 0.00 0.00 49 1015.4
20260508144559 62 162 0.9 1.7 0.00 0.00 0.00 49 1015.4
20260508144400 62 163 0.9 1.7 0.00 0.00 0.00 48 1015.5
20260508144200 62 162 0.9 1.7 0.00 0.00 0.00 48 1015.4
20260508144000 62 162 0.9 1.7 0.00 0.00 0.00 48 1015.4
20260508143559 62 163 0.0 0.9 0.00 0.00 0.00 48 1015.4
20260508143359 62 163 0.0 1.7 0.00 0.00 0.00 48 1015.4
20260508143159 62 163 0.0 1.7 0.00 0.00 0.00 47 1015.3
20260508142959 62 163 0.9 1.7 0.00 0.00 0.00 47 1015.3
20260508142759 62 163 0.9 1.7 0.00 0.00 0.00 47 1015.3
20260508142600 62 163 0.0 0.0 0.00 0.00 0.00 47 1015.3
20260508142359 62 163 0.0 0.0 0.00 0.00 0.00 47 1015.4
20260508141959 62 165 0.0 0.0 0.00 0.00 0.00 47 1015.3
20260508141759 61 163 0.0 0.0 0.00 0.00 0.00 46 1015.2
20260508141559 61 163 0.0 0.0 0.00 0.00 0.00 46 1015.2
20260508141400 61 164 0.0 0.0 0.00 0.00 0.00 46 1015.3
20260508141159 61 166 0.0 0.9 0.00 0.00 0.00 47 1015.3
20260508140959 61 167 0.0 0.9 0.00 0.00 0.00 47 1015.2
20260508140758 61 166 0.0 0.9 0.00 0.00 0.00 46 1015.2
20260508140559 61 166 0.0 0.9 0.00 0.00 0.00 46 1015.2
20260508140400 61 166 0.0 0.0 0.00 0.00 0.00 47 1015.1
20260508140200 60 166 0.0 0.0 0.00 0.00 0.00 47 1015.1
20260508140001 60 166 0.0 1.7 0.00 0.00 0.00 48 1015.0
20260508135759 60 166 0.0 1.7 0.00 0.00 0.00 48 1015.1
20260508135559 59 167 0.0 1.7 0.00 0.00 0.00 49 1015.1
20260508135359 59 167 0.0 1.7 0.00 0.00 0.00 48 1015.1
20260508135159 59 167 0.9 1.7 0.00 0.00 0.00 48 1015.0
20260508134959 59 168 0.0 0.0 0.00 0.00 0.00 49 1015.1
20260508134759 58 168 0.0 0.0 0.00 0.00 0.00 49 1015.1
20260508134559 58 169 0.0 0.0 0.00 0.00 0.00 49 1015.0
20260508134358 58 170 0.0 0.0 0.00 0.00 0.00 49 1015.0
20260508134200 57 170 0.0 0.0 0.00 0.00 0.00 49 1014.9
20260508134000 57 170 0.0 0.0 0.00 0.00 0.00 51 1014.9
20260508133759 57 360 0.0 0.0 0.00 0.00 0.00 51 1014.9
20260508133559 56 360 0.0 0.0 0.00 0.00 0.00 52 1014.9
20260508133359 56 360 0.0 0.0 0.00 0.00 0.00 52 1014.8
20260508133200 55 360 0.0 0.0 0.00 0.00 0.00 54 1014.8
20260508133000 55 360 0.0 0.0 0.00 0.00 0.00 54 1014.8
20260508132759 54 360 0.0 0.0 0.00 0.00 0.00 55 1014.8
20260508132559 54 149 0.0 0.0 0.00 0.00 0.00 55 1014.7
20260508132400 53 148 0.0 0.0 0.00 0.00 0.00 56 1014.7
20260508132159 53 180 0.0 0.0 0.00 0.00 0.00 57 1014.8
20260508131759 52 360 0.0 0.0 0.00 0.00 0.00 57 1014.7
20260508131600 51 360 0.0 0.0 0.00 0.00 0.00 57 1014.7
20260508131359 51 360 0.0 0.0 0.00 0.00 0.00 59 1014.7
20260508130959 50 360 0.0 0.0 0.00 0.00 0.00 60 1014.6
20260508130800 50 172 0.0 0.0 0.00 0.00 0.00 59 1014.5
20260508130559 50 360 0.0 0.0 0.00 0.00 0.00 60 1014.6
20260508130359 50 165 0.0 0.0 0.00 0.00 0.00 59 1014.5
20260508130000 50 166 0.0 0.0 0.00 0.00 0.00 60 1014.4
20260508125600 50 166 0.0 0.0 0.00 0.00 0.00 59 1014.4
20260508125359 50 165 0.0 0.0 0.00 0.00 0.00 59 1014.5
20260508125000 50 165 0.0 0.0 0.00 0.00 0.00 60 1014.3
20260508124800 50 164 0.0 0.0 0.00 0.00 0.00 59 1014.3
20260508124558 50 168 0.0 0.0 0.00 0.00 0.00 59 1014.3
20260508124400 50 166 0.0 0.0 0.00 0.00 0.00 59 1014.3
20260508124200 50 167 0.0 0.0 0.00 0.00 0.00 60 1014.3
20260508123959 50 165 0.0 0.0 0.00 0.00 0.00 60 1014.3
20260508123759 50 164 0.0 0.0 0.00 0.00 0.00 60 1014.2
20260508123559 50 164 0.0 0.0 0.00 0.00 0.00 61 1014.2
20260508123359 50 163 0.0 0.0 0.00 0.00 0.00 61 1014.1
20260508123159 50 163 0.0 0.0 0.00 0.00 0.00 61 1014.1
20260508122959 50 163 0.0 0.0 0.00 0.00 0.00 61 1014.1
20260508122759 50 163 0.0 0.0 0.00 0.00 0.00 61 1014.1
20260508122559 50 163 0.0 0.0 0.00 0.00 0.00 61 1014.0
20260508122359 50 163 0.0 0.0 0.00 0.00 0.00 61 1014.0
20260508122159 50 165 0.0 0.0 0.00 0.00 0.00 61 1014.0
20260508122000 50 163 0.0 0.0 0.00 0.00 0.00 61 1014.0
20260508121759 50 164 0.0 0.0 0.00 0.00 0.00 60 1014.0
20260508121558 50 164 0.0 0.0 0.00 0.00 0.00 60 1014.0
20260508121358 50 164 0.0 0.0 0.00 0.00 0.00 60 1013.9
20260508121200 50 165 0.0 0.0 0.00 0.00 0.00 60 1014.0
20260508121000 50 163 0.0 0.0 0.00 0.00 0.00 60 1013.9
20260508120758 50 163 0.0 0.0 0.00 0.00 0.00 59 1013.9
20260508120559 50 160 0.0 0.0 0.00 0.00 0.00 59 1013.9
20260508120358 50 161 0.0 0.0 0.00 0.00 0.00 59 1013.8
20260508120159 50 159 0.0 0.0 0.00 0.00 0.00 59 1013.8
20260508120000 51 158 0.0 0.0 0.00 0.00 0.00 59 1013.8
20260508115800 51 157 0.0 0.0 0.00 0.00 0.00 58 1013.7
20260508115359 51 155 0.0 0.0 0.00 0.00 0.00 58 1013.7
20260508115159 51 155 0.0 0.0 0.00 0.00 0.00 58 1013.7
20260508114959 51 155 0.0 0.0 0.00 0.00 0.00 58 1013.7
20260508114800 51 154 0.0 0.0 0.00 0.00 0.00 58 1013.7
20260508114558 51 154 0.0 0.0 0.00 0.00 0.00 58 1013.7
20260508114359 51 153 0.0 0.0 0.00 0.00 0.00 58 1013.8
20260508114159 51 153 0.0 0.0 0.00 0.00 0.00 57 1013.7
20260508113958 51 153 0.0 0.0 0.00 0.00 0.00 58 1013.7
20260508113759 51 153 0.0 0.0 0.00 0.00 0.00 58 1013.6
20260508113558 51 153 0.0 0.0 0.00 0.00 0.00 57 1013.6
20260508113357 51 153 0.0 0.0 0.00 0.00 0.00 57 1013.7
20260508113158 52 153 0.0 0.0 0.00 0.00 0.00 57 1013.7
20260508112958 52 153 0.0 0.0 0.00 0.00 0.00 57 1013.6
20260508112758 52 153 0.0 0.0 0.00 0.00 0.00 57 1013.6
20260508112558 52 153 0.0 0.0 0.00 0.00 0.00 57 1013.7
20260508112358 52 153 0.0 0.0 0.00 0.00 0.00 56 1013.7
20260508112157 52 153 0.0 0.0 0.00 0.00 0.00 55 1013.6
20260508111959 52 153 0.0 0.0 0.00 0.00 0.00 56 1013.7
20260508111758 52 153 0.0 0.0 0.00 0.00 0.00 56 1013.6
20260508111558 52 153 0.0 0.0 0.00 0.00 0.00 56 1013.6
20260508111358 52 153 0.0 0.0 0.00 0.00 0.00 56 1013.6
20260508110959 52 153 0.0 0.0 0.00 0.00 0.00 56 1013.7
20260508110558 52 153 0.0 0.0 0.00 0.00 0.00 57 1013.6
20260508110358 52 153 0.0 0.0 0.00 0.00 0.00 56 1013.6
20260508110158 52 153 0.0 0.0 0.00 0.00 0.00 57 1013.6
20260508110000 52 153 0.0 0.0 0.00 0.00 0.00 57 1013.6
20260508105759 52 153 0.0 0.0 0.00 0.00 0.00 57 1013.6
20260508105359 52 153 0.0 0.0 0.00 0.00 0.00 57 1013.5
20260508105000 52 153 0.0 0.0 0.00 0.00 0.00 57 1013.5
20260508104558 52 153 0.0 0.0 0.00 0.00 0.00 57 1013.6
20260508104359 52 153 0.0 0.0 0.00 0.00 0.00 57 1013.5
20260508104159 52 153 0.0 0.0 0.00 0.00 0.00 56 1013.5
20260508103958 52 153 0.0 0.0 0.00 0.00 0.00 56 1013.5
20260508103800 52 153 0.0 0.0 0.00 0.00 0.00 55 1013.5
20260508103558 52 153 0.0 0.0 0.00 0.00 0.00 56 1013.5
20260508103400 52 153 0.0 0.0 0.00 0.00 0.00 56 1013.4
20260508103200 52 153 0.0 0.0 0.00 0.00 0.00 55 1013.4
20260508102959 53 153 0.0 0.0 0.00 0.00 0.00 55 1013.4
20260508102759 53 153 0.0 0.0 0.00 0.00 0.00 55 1013.4
20260508102359 53 153 0.0 0.0 0.00 0.00 0.00 54 1013.4
20260508101800 53 153 0.0 0.0 0.00 0.00 0.00 53 1013.4
20260508101558 53 153 0.0 0.0 0.00 0.00 0.00 53 1013.4
20260508101400 53 153 0.0 0.0 0.00 0.00 0.00 53 1013.4
20260508101000 53 153 0.0 0.0 0.00 0.00 0.00 53 1013.4
20260508100759 53 153 0.0 0.0 0.00 0.00 0.00 53 1013.5
20260508100559 53 153 0.0 0.0 0.00 0.00 0.00 53 1013.4
20260508100359 53 153 0.0 0.0 0.00 0.00 0.00 53 1013.4
20260508100159 53 153 0.0 0.0 0.00 0.00 0.00 53 1013.4
20260508100003 53 153 0.0 0.0 0.00 0.00 0.00 54 1013.3
20260508095802 53 153 0.0 0.0 0.00 0.00 0.00 54 1013.3
20260508095559 53 153 0.0 0.0 0.00 0.00 0.00 55 1013.3
20260508095014 52 153 0.0 0.9 0.00 0.00 0.00 55 1013.4
20260508094804 52 153 0.0 0.9 0.00 0.00 0.00 57 1013.4
20260508094606 52 153 0.0 0.9 0.00 0.00 0.00 57 1013.3
20260508094403 52 153 0.0 0.9 0.00 0.00 0.00 57 1013.3
20260508094004 53 153 0.0 0.9 0.00 0.00 0.00 57 1013.4
20260508093759 53 153 0.0 0.9 0.00 0.00 0.00 57 1013.4
20260508093558 53 153 0.0 0.9 0.00 0.00 0.00 57 1013.4
20260508093359 53 153 0.0 0.9 0.00 0.00 0.00 57 1013.4
20260508093200 53 153 0.0 0.9 0.00 0.00 0.00 56 1013.4
20260508092959 53 153 0.0 1.7 0.00 0.00 0.00 56 1013.4
20260508092759 53 153 0.0 1.7 0.00 0.00 0.00 56 1013.3
20260508092559 53 153 0.0 1.7 0.00 0.00 0.00 56 1013.3
20260508092200 53 153 0.9 1.7 0.00 0.00 0.00 56 1013.2
20260508091559 53 153 0.0 0.0 0.00 0.00 0.00 56 1013.2
20260508091159 53 153 0.0 0.0 0.00 0.00 0.00 55 1013.2
20260508091000 53 153 0.0 0.0 0.00 0.00 0.00 55 1013.2
20260508090800 53 153 0.0 0.0 0.00 0.00 0.00 55 1013.2
20260508090559 53 153 0.0 0.0 0.00 0.00 0.00 55 1013.2
20260508085959 54 153 0.0 1.7 0.00 0.00 0.00 55 1013.2
20260508085757 54 153 0.0 2.6 0.00 0.00 0.00 55 1013.2
20260508085558 54 153 0.0 2.6 0.00 0.00 0.00 54 1013.2
20260508085359 54 153 0.0 2.6 0.00 0.00 0.00 54 1013.2
20260508085159 54 153 0.9 2.6 0.00 0.00 0.00 54 1013.2
20260508084959 54 153 0.9 2.6 0.00 0.00 0.00 54 1013.2
20260508084758 54 153 0.9 2.6 0.00 0.00 0.00 54 1013.2
20260508084558 54 153 0.9 1.7 0.00 0.00 0.00 54 1013.1
20260508084359 54 153 0.0 1.7 0.00 0.00 0.00 54 1013.2
20260508084158 54 153 0.0 0.9 0.00 0.00 0.00 54 1013.2
20260508083959 54 153 0.0 0.0 0.00 0.00 0.00 54 1013.2
20260508083758 54 153 0.0 0.9 0.00 0.00 0.00 53 1013.2
20260508083558 54 153 0.0 0.9 0.00 0.00 0.00 53 1013.1
20260508083157 54 153 0.0 0.9 0.00 0.00 0.00 53 1013.1
20260508082558 55 153 0.0 1.7 0.00 0.00 0.00 53 1013.1
20260508082358 55 153 0.0 2.6 0.00 0.00 0.00 53 1013.2
20260508082158 55 153 0.0 2.6 0.00 0.00 0.00 53 1013.2
20260508081958 55 153 0.0 2.6 0.00 0.00 0.00 53 1013.2
20260508081759 55 153 0.9 2.6 0.00 0.00 0.00 53 1013.2
20260508081158 55 153 0.0 0.0 0.00 0.00 0.00 52 1013.2
20260508080959 56 153 0.0 0.0 0.00 0.00 0.00 51 1013.2
20260508080758 56 153 0.0 0.0 0.00 0.00 0.00 51 1013.2
20260508080557 56 153 0.0 0.0 0.00 0.00 0.00 51 1013.2
20260508080159 56 153 0.0 0.0 0.00 0.00 0.00 50 1013.2
20260508075958 56 153 0.0 0.0 0.00 0.00 0.00 50 1013.2
20260508075558 56 153 0.0 0.0 0.00 0.00 0.00 49 1013.1
20260508075358 56 153 0.0 0.0 0.00 0.00 0.00 50 1013.1
20260508075158 56 153 0.0 0.0 0.00 0.00 0.00 50 1013.1
20260508074958 56 153 0.0 0.0 0.00 0.00 0.00 50 1013.1
20260508074758 56 152 0.0 0.0 0.00 0.00 0.00 50 1013.1
20260508074600 56 153 0.0 0.0 0.00 0.00 0.00 50 1013.1
20260508074358 56 153 0.0 0.0 0.00 0.00 0.00 51 1013.1
20260508074158 56 153 0.0 0.9 0.00 0.00 0.00 51 1013.1
20260508073957 56 153 0.0 1.7 0.00 0.00 0.00 50 1013.1
20260508073759 56 153 0.0 2.6 0.00 0.00 0.00 51 1013.1
20260508073358 56 153 0.9 2.6 0.00 0.00 0.00 51 1013.1
20260508073158 56 153 0.9 2.6 0.00 0.00 0.00 52 1013.1
20260508072557 55 153 0.0 0.0 0.00 0.00 0.00 51 1013.1
20260508072358 55 153 0.0 0.0 0.00 0.00 0.00 52 1013.1
20260508072158 55 153 0.0 0.0 0.00 0.00 0.00 53 1013.1
20260508071958 55 153 0.0 0.0 0.00 0.00 0.00 53 1013.1
20260508071758 55 153 0.0 0.0 0.00 0.00 0.00 53 1013.1
20260508071558 55 153 0.0 0.0 0.00 0.00 0.00 52 1013.1
20260508071358 55 153 0.0 0.0 0.00 0.00 0.00 52 1013.1
20260508070958 55 153 0.0 0.0 0.00 0.00 0.00 53 1013.1
20260508070758 55 153 0.0 0.0 0.00 0.00 0.00 53 1013.1
20260508070559 55 153 0.0 0.0 0.00 0.00 0.00 52 1013.1
20260508070358 55 153 0.0 0.0 0.00 0.00 0.00 52 1013.1
20260508070157 55 153 0.0 0.0 0.00 0.00 0.00 52 1013.0
20260508070000 55 153 0.0 0.0 0.00 0.00 0.00 53 1013.0
20260508065800 55 153 0.0 0.0 0.00 0.00 0.00 53 1013.0
20260508065600 55 152 0.0 0.0 0.00 0.00 0.00 53 1013.0
20260508065400 56 152 0.0 0.0 0.00 0.00 0.00 53 1013.0
20260508065200 56 152 0.0 0.0 0.00 0.00 0.00 53 1013.0
20260508065000 56 153 0.0 0.0 0.00 0.00 0.00 53 1013.0
20260508064800 56 152 0.0 0.0 0.00 0.00 0.00 53 1013.1
20260508064601 56 153 0.0 0.0 0.00 0.00 0.00 53 1013.0
20260508064200 56 152 0.0 0.0 0.00 0.00 0.00 53 1013.0
20260508063800 56 152 0.0 0.0 0.00 0.00 0.00 52 1012.9
20260508063600 56 152 0.0 0.0 0.00 0.00 0.00 53 1012.9
20260508063400 56 152 0.0 0.0 0.00 0.00 0.00 52 1012.8
20260508063200 56 152 0.0 0.0 0.00 0.00 0.00 51 1012.8
20260508063000 56 152 0.0 0.0 0.00 0.00 0.00 51 1012.8
20260508062759 57 152 0.0 0.0 0.00 0.00 0.00 51 1012.8
20260508062600 57 152 0.0 0.0 0.00 0.00 0.00 51 1012.8
20260508062400 57 152 0.0 0.0 0.00 0.00 0.00 51 1012.7
20260508062001 57 152 0.0 0.0 0.00 0.00 0.00 50 1012.7
20260508061600 57 152 0.0 0.0 0.00 0.00 0.00 49 1012.8
20260508061359 57 152 0.0 0.0 0.00 0.00 0.00 49 1012.8
20260508061200 57 152 0.0 0.0 0.00 0.00 0.00 49 1012.7
20260508061000 57 152 0.0 0.0 0.00 0.00 0.00 48 1012.8
20260508060801 57 152 0.0 0.0 0.00 0.00 0.00 49 1012.8
20260508060600 57 152 0.0 0.0 0.00 0.00 0.00 50 1012.7
20260508060400 57 152 0.0 0.0 0.00 0.00 0.00 50 1012.7
20260508060200 57 152 0.0 0.0 0.00 0.00 0.00 50 1012.7
20260508060001 57 152 0.0 0.0 0.00 0.00 0.00 50 1012.7
20260508055800 57 152 0.0 0.0 0.00 0.00 0.00 51 1012.7
20260508055600 57 152 0.0 0.0 0.00 0.00 0.00 50 1012.6
20260508055400 57 152 0.0 0.0 0.00 0.00 0.00 50 1012.6
20260508055200 57 152 0.0 0.0 0.00 0.00 0.00 50 1012.7
20260508054801 58 152 0.0 0.0 0.00 0.00 0.00 49 1012.7
20260508054601 58 152 0.0 0.0 0.00 0.00 0.00 49 1012.6
20260508054400 58 152 0.0 0.0 0.00 0.00 0.00 49 1012.6
20260508054159 58 152 0.0 0.0 0.00 0.00 0.00 48 1012.7
20260508054000 59 152 0.0 0.0 0.00 0.00 0.00 48 1012.6
20260508053600 59 152 0.0 0.0 0.00 0.00 0.00 47 1012.6
20260508053400 59 152 0.0 0.0 0.00 0.00 0.00 46 1012.6
20260508052800 60 152 0.0 0.0 0.00 0.00 0.00 45 1012.6
20260508052600 60 152 0.0 0.0 0.00 0.00 0.00 45 1012.6
20260508052400 61 152 0.0 0.0 0.00 0.00 0.00 44 1012.6
20260508052201 61 152 0.0 0.0 0.00 0.00 0.00 43 1012.5
20260508051959 61 152 0.0 0.0 0.00 0.00 0.00 42 1012.5
20260508051800 61 152 0.0 0.0 0.00 0.00 0.00 42 1012.5
20260508051600 61 152 0.0 0.0 0.00 0.00 0.00 42 1012.5
20260508051200 62 152 0.0 0.0 0.00 0.00 0.00 42 1012.4
20260508051000 62 152 0.0 0.0 0.00 0.00 0.00 41 1012.5
20260508050801 62 152 0.0 0.0 0.00 0.00 0.00 41 1012.4
20260508050401 62 152 0.0 0.0 0.00 0.00 0.00 40 1012.4
20260508050201 62 152 0.0 0.0 0.00 0.00 0.00 40 1012.5
20260508045801 62 152 0.0 0.0 0.00 0.00 0.00 40 1012.4
20260508045600 62 152 0.0 1.7 0.00 0.00 0.00 40 1012.4
20260508045401 62 152 0.0 1.7 0.00 0.00 0.00 40 1012.3
20260508045202 62 152 0.0 2.6 0.00 0.00 0.00 40 1012.3
20260508044801 62 152 0.9 2.6 0.00 0.00 0.00 40 1012.3
20260508044601 62 152 0.9 2.6 0.00 0.00 0.00 40 1012.3
20260508044402 62 152 0.9 2.6 0.00 0.00 0.00 40 1012.3
20260508044201 62 152 0.9 2.6 0.00 0.00 0.00 40 1012.3
20260508044001 62 152 0.9 2.6 0.00 0.00 0.00 41 1012.3
20260508043801 62 152 0.9 2.6 0.00 0.00 0.00 41 1012.3
20260508043601 62 152 0.9 2.6 0.00 0.00 0.00 41 1012.3
20260508043401 62 152 0.9 1.7 0.00 0.00 0.00 41 1012.3
20260508043201 62 152 0.9 1.7 0.00 0.00 0.00 41 1012.3
20260508043002 62 152 0.0 0.0 0.00 0.00 0.00 41 1012.3
20260508042601 63 151 0.0 0.0 0.00 0.00 0.00 41 1012.3
20260508042402 63 151 0.0 0.0 0.00 0.00 0.00 41 1012.3
20260508042201 63 152 0.0 0.0 0.00 0.00 0.00 41 1012.3
20260508042002 63 151 0.0 0.0 0.00 0.00 0.00 41 1012.3
20260508041800 63 151 0.0 0.0 0.00 0.00 0.00 41 1012.3
20260508041601 63 152 0.0 0.0 0.00 0.00 0.00 41 1012.3
20260508041401 63 151 0.0 0.0 0.00 0.00 0.00 41 1012.3
20260508041201 63 152 0.0 0.0 0.00 0.00 0.00 40 1012.3
20260508041001 63 152 0.0 0.0 0.00 0.00 0.00 41 1012.3
20260508040801 63 152 0.0 0.0 0.00 0.00 0.00 41 1012.3
20260508040402 63 151 0.0 1.7 0.00 0.00 0.00 41 1012.2
20260508040201 63 152 0.0 2.6 0.00 0.00 0.00 41 1012.2
20260508035559 63 152 0.9 4.3 0.00 0.00 0.00 42 1012.1
20260508035359 63 152 0.9 4.3 0.00 0.00 0.00 42 1012.1
20260508035000 63 152 0.9 2.6 0.00 0.00 0.00 42 1012.1
20260508034800 63 152 0.9 2.6 0.00 0.00 0.00 42 1012.2
20260508034601 63 190 0.0 0.0 0.00 0.00 0.00 42 1012.2
20260508034400 63 190 0.0 0.0 0.00 0.00 0.00 42 1012.1
20260508034200 63 190 0.0 0.0 0.00 0.00 0.00 42 1012.1
20260508034000 63 190 0.0 0.0 0.00 0.00 0.00 41 1012.1
20260508033800 63 190 0.0 0.0 0.00 0.00 0.00 42 1012.1
20260508033600 64 190 0.0 0.0 0.00 0.00 0.00 42 1012.0
20260508033201 64 190 0.0 0.0 0.00 0.00 0.00 41 1012.0
20260508032800 64 190 0.0 0.0 0.00 0.00 0.00 40 1012.0
20260508032559 64 190 0.0 0.0 0.00 0.00 0.00 40 1012.0
20260508032400 64 190 0.0 0.0 0.00 0.00 0.00 40 1012.0
20260508032159 64 190 0.0 0.0 0.00 0.00 0.00 40 1011.9
20260508032000 64 190 0.0 0.0 0.00 0.00 0.00 40 1011.9
20260508031800 64 190 0.0 0.0 0.00 0.00 0.00 40 1012.0
20260508031400 65 190 0.0 0.0 0.00 0.00 0.00 39 1011.9
20260508031000 65 190 0.0 0.0 0.00 0.00 0.00 40 1011.8
20260508030801 65 190 0.0 0.0 0.00 0.00 0.00 40 1011.9
20260508030601 66 190 0.0 0.0 0.00 0.00 0.00 39 1011.8
20260508030200 66 190 0.0 0.0 0.00 0.00 0.00 38 1011.8
20260508030003 66 190 0.0 0.0 0.00 0.00 0.00 38 1011.8
20260508025800 66 190 0.0 0.0 0.00 0.00 0.00 38 1011.7
20260508025600 67 190 0.0 0.0 0.00 0.00 0.00 37 1011.7
20260508025359 67 190 0.0 0.0 0.00 0.00 0.00 37 1011.7
20260508025200 67 190 0.0 0.0 0.00 0.00 0.00 37 1011.7
20260508024801 68 190 0.0 0.0 0.00 0.00 0.00 36 1011.7
20260508024559 68 190 0.0 0.0 0.00 0.00 0.00 35 1011.7
20260508024400 68 190 0.0 0.0 0.00 0.00 0.00 35 1011.7
20260508024200 69 190 0.0 0.0 0.00 0.00 0.00 33 1011.7
20260508024001 69 190 0.0 0.0 0.00 0.00 0.00 34 1011.7
20260508023800 69 190 0.0 0.0 0.00 0.00 0.00 34 1011.7
20260508023559 70 190 0.0 0.0 0.00 0.00 0.00 33 1011.7
20260508023400 70 190 0.0 0.0 0.00 0.00 0.00 33 1011.6
20260508023001 70 190 0.0 0.0 0.00 0.00 0.00 32 1011.6
20260508022159 71 360 0.0 0.9 0.00 0.00 0.00 30 1011.6
20260508022000 71 360 0.0 0.9 0.00 0.00 0.00 30 1011.6
20260508021800 72 360 0.0 0.9 0.00 0.00 0.00 30 1011.6
20260508021601 72 360 0.0 0.9 0.00 0.00 0.00 30 1011.5
20260508021359 72 360 0.0 0.0 0.00 0.00 0.00 29 1011.6
20260508021200 73 203 0.0 0.0 0.00 0.00 0.00 29 1011.6
20260508021000 73 202 0.0 0.0 0.00 0.00 0.00 28 1011.6
20260508020801 73 202 0.0 0.0 0.00 0.00 0.00 30 1011.6
20260508020600 73 202 0.0 0.0 0.00 0.00 0.00 29 1011.6
20260508020359 74 192 0.0 0.0 0.00 0.00 0.00 29 1011.6
20260508020201 74 190 0.0 0.0 0.00 0.00 0.00 29 1011.6
20260508020004 74 189 0.0 0.9 0.00 0.00 0.00 29 1011.5
20260508015800 74 189 0.0 1.7 0.00 0.00 0.00 28 1011.5
20260508015600 74 188 0.0 1.7 0.00 0.00 0.00 28 1011.5
20260508015400 74 188 0.0 2.6 0.00 0.00 0.00 27 1011.4
20260508015200 74 188 0.0 2.6 0.00 0.00 0.00 27 1011.5
20260508015000 74 188 0.9 2.6 0.00 0.00 0.00 27 1011.5
20260508014800 74 188 0.9 2.6 0.00 0.00 0.00 27 1011.5
20260508014600 74 188 0.9 2.6 0.00 0.00 0.00 27 1011.5
20260508014400 74 188 0.9 1.7 0.00 0.00 0.00 27 1011.6
20260508014201 74 188 0.9 1.7 0.00 0.00 0.00 27 1011.6
20260508014000 74 188 0.9 2.6 0.00 0.00 0.00 27 1011.6
20260508013800 74 188 0.9 2.6 0.00 0.00 0.00 27 1011.5
20260508013600 75 188 0.9 2.6 0.00 0.00 0.00 26 1011.5
20260508013400 75 188 0.9 2.6 0.00 0.00 0.00 27 1011.5
20260508013200 75 188 1.7 2.6 0.00 0.00 0.00 26 1011.5
20260508012600 75 188 0.0 0.0 0.00 0.00 0.00 26 1011.5
20260508012200 75 188 0.0 0.0 0.00 0.00 0.00 26 1011.6
20260508011800 75 188 0.0 0.0 0.00 0.00 0.00 26 1011.7
20260508011600 75 188 0.0 1.7 0.00 0.00 0.00 27 1011.7
20260508011359 75 188 0.0 2.6 0.00 0.00 0.00 26 1011.7
20260508011203 75 188 0.0 3.5 0.00 0.00 0.00 26 1011.7
20260508011001 75 188 0.0 3.5 0.00 0.00 0.00 27 1011.7
20260508010759 75 188 0.9 3.5 0.00 0.00 0.00 26 1011.7
20260508010600 75 188 1.7 3.5 0.00 0.00 0.00 25 1011.7
20260508010400 76 188 1.7 4.3 0.00 0.00 0.00 25 1011.8
20260508010200 76 188 0.9 4.3 0.00 0.00 0.00 25 1011.8
20260508010002 76 188 1.7 4.3 0.00 0.00 0.00 25 1011.8
20260508005800 76 188 2.6 4.3 0.00 0.00 0.00 26 1011.8
20260508005559 77 204 2.6 4.3 0.00 0.00 0.00 26 1011.8
20260508005400 77 195 1.7 3.5 0.00 0.00 0.00 26 1011.8
20260508005200 77 294 0.9 3.5 0.00 0.00 0.00 25 1011.8
20260508004801 77 295 0.0 3.5 0.00 0.00 0.00 26 1011.8
20260508004359 76 295 0.9 3.5 0.00 0.00 0.00 25 1011.7
20260508004200 77 295 2.6 4.3 0.00 0.00 0.00 25 1011.7
20260508004000 77 289 0.9 4.3 0.00 0.00 0.00 26 1011.7
20260508003600 76 312 2.6 4.3 0.00 0.00 0.00 25 1011.7
20260508003400 76 90 0.0 1.7 0.00 0.00 0.00 25 1011.7
20260508003200 76 90 0.0 3.5 0.00 0.00 0.00 25 1011.7
20260508002800 75 90 0.0 3.5 0.00 0.00 0.00 25 1011.7
20260508002559 75 90 0.9 3.5 0.00 0.00 0.00 26 1011.7
20260508002400 75 90 1.7 3.5 0.00 0.00 0.00 26 1011.7
20260508002200 76 90 2.6 3.5 0.00 0.00 0.00 25 1011.7
20260508001600 75 104 0.9 3.5 0.00 0.00 0.00 26 1011.8
20260508001200 75 104 2.6 3.5 0.00 0.00 0.00 26 1011.9
20260508001001 75 92 0.9 2.6 0.00 0.00 0.00 27 1011.9
20260508000800 75 92 0.9 2.6 0.00 0.00 0.00 26 1012.0
20260508000559 75 92 0.9 4.3 0.00 0.00 0.00 27 1012.0
20260508000400 75 92 1.7 4.3 0.00 0.00 0.00 27 1012.0
20260508000159 75 150 0.9 4.3 0.00 0.00 0.00 25 1012.1
20260508000000 75 150 1.7 4.3 0.00 0.00 0.00 26 1012.1
20260507235800 75 162 1.7 2.6 0.00 0.00 0.00 27 1012.0
20260507235600 75 173 1.7 2.6 0.00 0.00 0.00 26 1012.1
20260507235400 75 173 0.0 4.3 0.00 0.00 0.00 26 1012.1
20260507235200 75 79 0.9 4.3 0.00 0.00 0.00 26 1012.2
20260507235000 75 79 0.9 4.3 0.00 0.00 0.00 27 1012.2
20260507234801 75 79 2.6 4.3 0.00 0.00 0.00 26 1012.2
20260507234600 75 79 1.7 4.3 0.00 0.00 0.00 27 1012.2
20260507234400 75 91 1.7 5.2 0.00 0.00 0.00 26 1012.2
20260507234200 75 137 1.7 2.6 0.00 0.00 0.00 27 1012.3
20260507234000 76 137 1.7 2.6 0.00 0.00 0.00 27 1012.3
20260507233600 75 30 0.9 2.6 0.00 0.00 0.00 27 1012.4
20260507233200 75 333 0.0 2.6 0.00 0.00 0.00 27 1012.4
20260507233000 75 333 0.9 3.5 0.00 0.00 0.00 26 1012.4
20260507232800 74 322 0.9 3.5 0.00 0.00 0.00 26 1012.4
20260507232600 74 322 0.9 3.5 0.00 0.00 0.00 27 1012.4
20260507232400 74 322 1.7 3.5 0.00 0.00 0.00 27 1012.4
20260507232159 75 321 1.7 3.5 0.00 0.00 0.00 27 1012.4
20260507231600 75 333 0.0 2.6 0.00 0.00 0.00 27 1012.5
20260507231400 74 333 0.0 2.6 0.00 0.00 0.00 26 1012.5
20260507231201 74 333 0.9 2.6 0.00 0.00 0.00 25 1012.6
20260507231000 75 333 0.9 4.3 0.00 0.00 0.00 26 1012.6
20260507230800 75 333 0.9 4.3 0.00 0.00 0.00 26 1012.6
20260507230600 75 333 0.9 4.3 0.00 0.00 0.00 27 1012.6
20260507230400 74 333 0.9 4.3 0.00 0.00 0.00 27 1012.7
20260507230200 74 340 1.7 4.3 0.00 0.00 0.00 26 1012.7
20260507230001 75 317 2.6 4.3 0.00 0.00 0.00 26 1012.8
20260507225759 75 24 0.0 2.6 0.00 0.00 0.00 26 1012.8
20260507225600 75 24 0.9 2.6 0.00 0.00 0.00 26 1012.8
20260507225401 75 355 0.0 2.6 0.00 0.00 0.00 26 1013.0
20260507225000 74 338 0.9 2.6 0.00 0.00 0.00 27 1013.0
20260507224600 73 338 0.9 2.6 0.00 0.00 0.00 27 1013.2
20260507224400 73 338 0.9 2.6 0.00 0.00 0.00 28 1013.2
20260507224200 73 338 0.0 2.6 0.00 0.00 0.00 28 1013.2
20260507224000 73 338 0.9 3.5 0.00 0.00 0.00 26 1013.2
20260507223800 73 336 0.9 3.5 0.00 0.00 0.00 27 1013.2
20260507223401 74 336 1.7 3.5 0.00 0.00 0.00 26 1013.3
20260507223000 74 313 0.9 3.5 0.00 0.00 0.00 27 1013.3
20260507222800 74 313 1.7 3.5 0.00 0.00 0.00 28 1013.4
20260507222559 73 310 0.9 2.6 0.00 0.00 0.00 27 1013.5
20260507222400 73 310 1.7 2.6 0.00 0.00 0.00 27 1013.5
20260507222200 72 310 0.9 2.6 0.00 0.00 0.00 28 1013.5
20260507222000 72 296 0.0 2.6 0.00 0.00 0.00 28 1013.5
20260507221800 72 296 0.9 2.6 0.00 0.00 0.00 27 1013.5
20260507221600 72 296 0.9 5.2 0.00 0.00 0.00 29 1013.6
20260507221200 72 296 1.7 5.2 0.00 0.00 0.00 30 1013.6
20260507221000 72 296 1.7 5.2 0.00 0.00 0.00 28 1013.6
20260507220800 73 293 0.9 4.3 0.00 0.00 0.00 29 1013.6
20260507220400 73 293 1.7 3.5 0.00 0.00 0.00 28 1013.7
20260507220000 73 288 1.7 3.5 0.00 0.00 0.00 27 1013.7
20260507215759 73 255 0.9 3.5 0.00 0.00 0.00 27 1013.7
20260507215559 73 243 0.9 3.5 0.00 0.00 0.00 27 1013.7
20260507215359 73 241 0.9 3.5 0.00 0.00 0.00 27 1013.7
20260507215159 73 280 1.7 5.2 0.00 0.00 0.00 27 1013.7
20260507214959 73 272 2.6 5.2 0.00 0.00 0.00 26 1013.8
20260507214801 73 243 0.9 5.2 0.00 0.00 0.00 27 1013.8
20260507214559 73 243 0.9 5.2 0.00 0.00 0.00 26 1013.8
20260507214359 73 275 2.6 7.0 0.00 0.00 0.00 26 1013.8
20260507214159 74 205 1.7 7.0 0.00 0.00 0.00 26 1013.8
20260507213959 74 280 2.6 7.0 0.00 0.00 0.00 27 1013.8
20260507213759 74 247 1.7 7.0 0.00 0.00 0.00 26 1013.8